Weather History for PPIZ - October, 2012

Change the Weather History Date:

Tuesday, October 16, 2012

  Actual Average Record
Temperature  
Mean Temperature 24 °F -  
Max Temperature 26 °F 19 °F 37 °F (2006)
Min Temperature 21 °F 11 °F -5 °F (1996)
Degree Days  
Heating Degree Days 42    
Moisture  
Dew Point 17 °F    
Average Humidity 79    
Maximum Humidity 93    
Minimum Humidity 51    
Precipitation  
Precipitation 0.00 in - - ()
Sea Level Pressure  
Sea Level Pressure 29.91 in    
Wind  
Wind Speed 14 mph (NNW)    
Max Wind Speed 22 mph    
Max Gust Speed 30 mph    
Visibility 5 miles    
Events Fog , Snow    
Averages and records for this station are not official NWS values.
T = Trace of Precipitation, MM = Missing Value Source: NWS Daily Summary

Daily Weather History Graph

Daily Weather History Graph

Search for Another Location

Airport or City:

Trip Planner

Search our weather history database for the weather conditions in past years. The results will help you decide how hot, cold, wet, or windy it might be!

Date:

Astronomy

Oct. 16, 2012 Rise Set
Actual Time 10:11 AM AKDT 7:02 PM AKDT
Civil Twilight 9:08 AM AKDT 8:04 PM AKDT
Nautical Twilight 7:58 AM AKDT 9:14 PM AKDT
Astronomical Twilight 6:46 AM AKDT 10:25 PM AKDT
Moon 1:34 PM AKDT (10/16) 6:03 PM AKDT (10/16)
Length of Visible Light 10h 56m
Length of Day
8h 50m
Waxing Crescent, 3% of the Moon is Illuminated
Oct 16
Waxing Crescent
Oct 21
First Quarter
Oct 29
Full
Nov 6
Last Quarter
Nov 13
New

Hourly Weather History & Observations

Time (AKDT) Temp. Windchill Dew Point Humidity Pressure Visibility Wind Dir Wind Speed Gust Speed Precip Events Conditions
12:00 AM 21.2 °F 6.4 °F 19.4 °F 93% 29.74 in 0.8 mi NNW 18.4 mph 29.9 mph 0.00 in Snow Light Snow
12:07 AM 23.0 °F 7.6 °F 21.2 °F 93% 29.75 in 0.8 mi NNW 21.9 mph - 0.00 in Snow Light Snow
12:22 AM 23.0 °F 10.1 °F 21.2 °F 93% 29.75 in 1.2 mi North 15.0 mph - 0.00 in Snow Light Snow
12:29 AM 23.0 °F 8.0 °F 21.2 °F 93% 29.75 in 2.0 mi North 20.7 mph - 0.00 in Snow Light Snow
12:41 AM 23.0 °F 10.6 °F 21.2 °F 93% 29.75 in 1.8 mi North 13.8 mph - 0.00 in Snow Light Snow
12:46 AM 23.0 °F 10.6 °F 21.2 °F 93% 29.76 in 3.0 mi North 13.8 mph - 0.00 in Snow Light Snow
12:56 AM 23.0 °F 8.3 °F 21.2 °F 93% 29.75 in 4.0 mi NNW 19.6 mph - N/A Snow Light Snow
1:09 AM 24.8 °F 14.0 °F 21.2 °F 86% 29.76 in 2.5 mi NW 11.5 mph - 0.00 in Snow Light Snow
1:17 AM 24.8 °F 13.4 °F 21.2 °F 86% 29.76 in 9.0 mi North 12.7 mph - 0.00 in   Partly Cloudy
1:56 AM 24.1 °F 12.5 °F 19.0 °F 81% 29.78 in 1.8 mi NNW 12.7 mph 23.0 mph 0.00 in Snow Light Snow
2:01 AM 23.0 °F 14.7 °F 17.6 °F 80% 29.78 in 3.0 mi NE 6.9 mph - 0.00 in Snow Light Snow
2:36 AM 24.8 °F 11.5 °F 15.8 °F 69% 29.78 in 10.0 mi NNW 17.3 mph - 0.00 in Snow Light Snow
2:56 AM 26.1 °F 13.1 °F 16.2 °F 66% 29.80 in 10.0 mi NNW 17.3 mph - 0.00 in Snow Light Snow
3:56 AM 23.0 °F 9.2 °F 18.1 °F 82% 29.81 in 10.0 mi NW 17.3 mph - 0.00 in   Scattered Clouds
4:56 AM 24.1 °F 11.5 °F 13.1 °F 63% 29.83 in 10.0 mi NNW 15.0 mph - N/A   Clear
5:56 AM 24.1 °F 11.0 °F 19.0 °F 81% 29.84 in 10.0 mi NNW 16.1 mph - N/A   Partly Cloudy
6:45 AM 23.0 °F 9.2 °F 19.4 °F 86% 29.84 in 2.5 mi NW 17.3 mph - 0.00 in Snow Light Snow
6:47 AM 23.0 °F 10.6 °F 19.4 °F 86% 29.84 in 1.8 mi NW 13.8 mph - 0.00 in Snow Light Snow
6:56 AM 23.0 °F 12.4 °F 19.4 °F 86% 29.85 in 4.0 mi NW 10.4 mph - N/A Snow Light Snow
7:56 AM 24.1 °F 13.1 °F 14.0 °F 65% 29.87 in 10.0 mi NNE 11.5 mph - 0.00 in   Mostly Cloudy
8:56 AM 24.1 °F 11.5 °F 11.1 °F 58% 29.88 in 10.0 mi NNW 15.0 mph - N/A   Mostly Cloudy
9:56 AM 25.2 °F 13.3 °F 12.0 °F 58% 29.90 in 10.0 mi NNW 13.8 mph - N/A   Scattered Clouds
10:56 AM 25.2 °F 14.4 °F 9.1 °F 51% 29.92 in 10.0 mi NNW 11.5 mph - N/A   Mostly Cloudy
11:56 AM 24.1 °F 12.5 °F 15.1 °F 69% 29.93 in 10.0 mi NNW 12.7 mph - N/A   Partly Cloudy
12:14 PM 23.0 °F 10.1 °F 17.6 °F 80% 29.93 in 2.0 mi NNW 15.0 mph - 0.00 in Snow Light Snow
12:18 PM 23.0 °F 12.4 °F 19.4 °F 86% 29.93 in 1.2 mi NNW 10.4 mph - 0.00 in Snow Light Snow
12:27 PM 24.8 °F 16.1 °F 17.6 °F 74% 29.93 in 1.8 mi NNW 8.1 mph - 0.00 in Snow Light Snow
12:35 PM 24.8 °F - 17.6 °F 74% 29.94 in 2.5 mi Calm Calm - 0.00 in Snow Light Snow
12:43 PM 24.8 °F - 17.6 °F 74% 29.94 in 8.0 mi Calm Calm - 0.00 in Snow Light Snow
12:56 PM 21.2 °F 12.6 °F 15.8 °F 80% 29.94 in 10.0 mi NNE 6.9 mph - N/A   Mostly Cloudy
1:11 PM 21.2 °F 7.8 °F 19.4 °F 93% 29.95 in 1.2 mi North 15.0 mph - 0.00 in Snow Light Snow
1:13 PM 21.2 °F 7.8 °F 19.4 °F 93% 29.95 in 0.8 mi North 15.0 mph - 0.00 in Snow Light Snow
1:16 PM 21.2 °F 8.9 °F 19.4 °F 93% 29.95 in 0.5 mi North 12.7 mph - 0.00 in Fog , Snow Light Snow
1:39 PM 23.0 °F 14.7 °F 19.4 °F 86% 29.95 in 1.0 mi NNW 6.9 mph - 0.00 in Snow Light Snow
1:41 PM 23.0 °F 13.1 °F 19.4 °F 86% 29.95 in 2.0 mi NNW 9.2 mph - 0.00 in Snow Light Snow
1:46 PM 24.8 °F 16.1 °F 17.6 °F 74% 29.95 in 9.0 mi NNW 8.1 mph - 0.00 in Snow Light Snow
1:56 PM 24.1 °F 13.1 °F 17.1 °F 75% 29.96 in 10.0 mi NNW 11.5 mph - 0.00 in   Mostly Cloudy
2:18 PM 23.0 °F 13.9 °F 19.4 °F 86% 29.96 in 10.0 mi NNE 8.1 mph - 0.00 in Snow Light Snow
2:22 PM 23.0 °F 11.7 °F 19.4 °F 86% 29.97 in 2.5 mi North 11.5 mph - 0.00 in Snow Light Snow
2:24 PM 23.0 °F 11.7 °F 19.4 °F 86% 29.97 in 0.8 mi North 11.5 mph - 0.00 in Snow Light Snow
2:28 PM 23.0 °F 10.6 °F 19.4 °F 86% 29.97 in 0.2 mi North 13.8 mph - 0.00 in Fog , Snow Snow
2:32 PM 21.2 °F 8.9 °F 19.4 °F 93% 29.97 in 0.2 mi North 12.7 mph - 0.00 in Fog , Snow Snow
2:45 PM 21.2 °F 10.1 °F 19.4 °F 93% 29.97 in 0.2 mi North 10.4 mph - 0.00 in Fog , Snow Light Snow
2:56 PM 22.1 °F 14.7 °F 20.1 °F 92% 29.99 in 0.5 mi NNW 5.8 mph - 0.00 in Fog , Snow Light Snow
3:04 PM 23.0 °F 14.7 °F 19.4 °F 86% 29.97 in 0.8 mi WNW 6.9 mph - 0.00 in Snow Light Snow
3:08 PM 23.0 °F 14.7 °F 19.4 °F 86% 29.97 in 1.2 mi WNW 6.9 mph - 0.00 in Snow Light Snow
3:12 PM 23.0 °F 14.7 °F 19.4 °F 86% 29.97 in 2.5 mi WNW 6.9 mph - 0.00 in Snow Light Snow
3:14 PM 23.0 °F 14.7 °F 19.4 °F 86% 29.97 in 4.0 mi WNW 6.9 mph - 0.00 in Snow Light Snow
3:21 PM 23.0 °F 17.0 °F 19.4 °F 86% 29.97 in 6.0 mi WNW 4.6 mph - 0.00 in Snow Light Snow
3:56 PM 24.8 °F 12.9 °F 15.8 °F 69% 29.98 in 10.0 mi North 13.8 mph - N/A Snow Light Snow
4:10 PM 24.8 °F 13.4 °F 15.8 °F 69% 29.98 in 3.0 mi NNE 12.7 mph - 0.00 in Snow Light Snow
4:56 PM 24.1 °F 12.0 °F 14.0 °F 65% 30.00 in 8.0 mi North 13.8 mph - 0.00 in Snow Light Snow
5:56 PM 23.0 °F 11.1 °F 12.0 °F 63% 30.01 in 10.0 mi NNW 12.7 mph - 0.00 in   Partly Cloudy
6:56 PM 24.1 °F 13.1 °F 12.0 °F 60% 30.03 in 10.0 mi NNW 11.5 mph - N/A   Partly Cloudy
7:56 PM 25.2 °F 15.1 °F 14.0 °F 63% 30.04 in 9.0 mi NNW 10.4 mph - 0.00 in   Overcast
8:23 PM 24.8 °F 11.5 °F 12.2 °F 59% 30.03 in 10.0 mi North 17.3 mph - 0.00 in   Mostly Cloudy
8:56 PM 24.1 °F 12.5 °F 13.1 °F 63% 30.05 in 10.0 mi NNW 12.7 mph - 0.00 in   Overcast
9:56 PM 24.8 °F 14.0 °F 12.2 °F 59% 30.06 in 10.0 mi North 11.5 mph - N/A Snow Light Snow
10:56 PM 24.1 °F 13.1 °F 13.1 °F 63% 30.09 in 10.0 mi North 11.5 mph - 0.00 in   Mostly Cloudy
11:35 PM 23.0 °F 10.6 °F 15.8 °F 74% 30.08 in 6.0 mi NNW 13.8 mph - 0.00 in Snow Light Snow
11:56 PM 23.0 °F 13.9 °F 14.0 °F 68% 30.10 in 10.0 mi North 8.1 mph - 0.00 in   Mostly Cloudy